Simultaneous Nadir Overpasses (SNOs) Predictions

Prediction of SNOs near US between AQUA and NPP Satellite Orbit:

Table of predicted SNOs near US for the next 10.0 days since TLE Epoch: 5/29/2020
Index Date (AQUA) Time (AQUA) AQUA Lat,Lon Date (NPP) Time (NPP) NPP Lat,Lon Distance(km) Time Diff (sec)
1 06/01/2020 10:12:13 26.69,-124.99 06/01/2020 10:05:44 24.74,-126.19 247.56 389
2 06/04/2020 07:18:52 49.92, -75.98 06/04/2020 07:19:47 50.33, -78.12 159.75 55
3 06/04/2020 08:57:45 49.92,-100.70 06/04/2020 09:01:14 50.49,-103.42 204.22 209
4 06/06/2020 18:17:02 49.97, -80.17 06/06/2020 18:10:03 49.70, -81.69 113.22 419
5 06/06/2020 19:55:55 49.96,-104.89 06/06/2020 19:51:31 49.59,-107.02 158.45 264
6 06/06/2020 21:31:06 36.72,-125.00 06/06/2020 21:29:11 36.27,-127.53 232.16 115




NCC Satellite Simultaneous Nadir Overpasses (SNOs) Prediction Service
